Погода в Тербунах

Россия / Липецкая область     52°08′50″N   38°16′47″E
темп.,
°C
ветер,
м/с
пор.,
м/с
влажн.,
%
обл.,
%
осадки,
мм/ч
давл.,
гПа
погр.,
м
14 мая, пт
пт1400:00+11вюв339281 0.0 101634
03:00+11вюв3492100 0.1 101646
06:00+12вюв369556 0.1 1015128
09:00+17вюв5978100 0.1 1014428
12:00+21юв7106694 0.0 10141116
15:00+21юв91369100 0.7 10121007
18:00+20ююв61469100 0.0 1011442
21:00+17ююв41085100 0.0 1010198
15 мая, сб
сб1500:00+16ююв51592100 4.1 1009295
03:00+15ююз379652 4.6 1010161
06:00+15ююз369186 0.1 1011138
09:00+18ююз587495 0.1 1012504
12:00+20ююз68607 0.0 10121101
15:00+22ююз68535 0.0 10121864
18:00+20ююз586784 0.3 1013435
21:00+16ююз33790 0.3 101441
16 мая, вс
вс1600:00+14ююз22825 0.0 101420
03:00+13ю22825 0.0 101515
06:00+14юв22795 0.0 101525
09:00+19ююв35660 0.0 1015428
12:00+23ююз34490 0.0 10151956
15:00+24ю1344100 0.0 10142077
18:00+23вюв2463100 0.0 1013113
21:00+18всв456950 0.1 101364
17 мая, пн
пн1700:00+16всв479199 1.0 1013123
03:00+15всв48905 1.0 1012124
06:00+15в512845 0.0 1011225
09:00+21юв5106589 0.0 1011372
12:00+25юв7114994 0.0 1010875
15:00+26юв71351100 0.0 10091939
18:00+23юв7145946 0.0 1008599
21:00+19вюв5147094 0.0 1008291
18 мая, вт
вт1800:00+17вюв4127698 0.0 1007245
03:00+15юв4107846 0.0 1007182
06:00+16юв4108530 0.0 1007231
09:00+20ююв6978100 0.0 1007566
12:00+22ююз71268100 0.0 10081156
15:00+20ю5875100 0.3 1009840
18:00+20ю577395 0.9 1008967
21:00+16ю4988100 2.2 1009193